CEB791 RPLL-RPME

Flight info

Callsign CEB791
Flight time 1h 14m
Altitude 39000
Route IPATA2V IPATA B462 TAC W9 BANWA DCT ROLEX TACL2A
Aircraft A20N/M-SDE2E3FGHIRWXY/LB1

Departure

Time 2026-04-25 04:28
Airport Ninoy Aquino International Airport (RPLL)

Arrival

Time 2026-04-25 05:42
Airport Bancasi Airport (RPME)
Time Latitude Longitude Altitude Speed Heading
2026-04-25 04:02 14.52308 121.00861 82 ft 0 kts 44°
2026-04-25 04:19 14.52305 121.00857 82 ft 2 kts 44°
2026-04-25 04:20 14.52294 121.00847 82 ft 2 kts 44°
2026-04-25 04:20 14.52284 121.00836 82 ft 2 kts 44°
2026-04-25 04:20 14.52273 121.00826 82 ft 2 kts 44°
2026-04-25 04:20 14.52265 121.00818 82 ft 0 kts 44°
2026-04-25 04:21 14.52254 121.00809 82 ft 2 kts 24°
2026-04-25 04:21 14.52240 121.00804 82 ft 2 kts
2026-04-25 04:21 14.52225 121.00805 82 ft 2 kts 347°
2026-04-25 04:21 14.52211 121.00810 82 ft 2 kts 328°
2026-04-25 04:22 14.52204 121.00816 82 ft 0 kts 316°
2026-04-25 04:22 14.52209 121.00811 82 ft 4 kts 316°
2026-04-25 04:22 14.52243 121.00777 82 ft 7 kts 315°
2026-04-25 04:22 14.52275 121.00743 82 ft 4 kts 315°
2026-04-25 04:23 14.52285 121.00732 82 ft 0 kts 315°
2026-04-25 04:24 14.52290 121.00727 82 ft 2 kts 315°
2026-04-25 04:25 14.52313 121.00703 82 ft 6 kts 315°
2026-04-25 04:25 14.52355 121.00660 82 ft 9 kts 314°
2026-04-25 04:25 14.52407 121.00607 82 ft 11 kts 315°
2026-04-25 04:25 14.52461 121.00551 82 ft 10 kts 315°
2026-04-25 04:26 14.52490 121.00494 82 ft 7 kts 255°
2026-04-25 04:26 14.52465 121.00461 82 ft 6 kts 226°
2026-04-25 04:26 14.52430 121.00425 82 ft 7 kts 226°
2026-04-25 04:26 14.52383 121.00403 82 ft 7 kts 166°
2026-04-25 04:27 14.52348 121.00423 82 ft 4 kts 139°
2026-04-25 04:27 14.52340 121.00429 82 ft 7 kts 137°
2026-04-25 04:27 14.52109 121.00676 82 ft 86 kts 136°
2026-04-25 04:27 14.51511 121.01289 82 ft 151 kts 135°
2026-04-25 04:28 14.50735 121.02094 647 ft 156 kts 135°
2026-04-25 04:28 14.49972 121.02872 1329 ft 157 kts 133°
2026-04-25 04:28 14.49202 121.03666 1979 ft 159 kts 132°
2026-04-25 04:28 14.48394 121.04512 2353 ft 172 kts 132°
2026-04-25 04:29 14.47518 121.05431 2674 ft 190 kts 132°
2026-04-25 04:29 14.46527 121.06467 3019 ft 211 kts 133°
2026-04-25 04:29 14.45462 121.07575 3438 ft 228 kts 133°
2026-04-25 04:29 14.44300 121.08784 3877 ft 246 kts 132°
2026-04-25 04:30 14.43128 121.10156 4349 ft 263 kts 126°
2026-04-25 04:30 14.42073 121.11710 5062 ft 269 kts 122°
2026-04-25 04:30 14.41048 121.13348 5865 ft 273 kts 121°
2026-04-25 04:30 14.40036 121.14980 6682 ft 276 kts 121°
2026-04-25 04:31 14.39006 121.16647 7478 ft 280 kts 122°
2026-04-25 04:31 14.37949 121.18353 8293 ft 285 kts 122°
2026-04-25 04:31 14.36878 121.20077 9075 ft 289 kts 123°
2026-04-25 04:31 14.35797 121.21819 9841 ft 293 kts 123°
2026-04-25 04:32 14.34688 121.23598 10495 ft 300 kts 123°
2026-04-25 04:32 14.33535 121.25447 11013 ft 313 kts 123°
2026-04-25 04:32 14.32361 121.27332 11686 ft 318 kts 123°
2026-04-25 04:32 14.31157 121.29266 12412 ft 321 kts 123°
2026-04-25 04:33 14.29950 121.31202 13070 ft 325 kts 123°
2026-04-25 04:33 14.28716 121.33182 13728 ft 329 kts 123°
2026-04-25 04:33 14.27475 121.35172 14360 ft 334 kts 123°
2026-04-25 04:33 14.26210 121.37199 14994 ft 339 kts 123°
2026-04-25 04:34 14.24942 121.39233 15617 ft 343 kts 123°
2026-04-25 04:34 14.23645 121.41315 16191 ft 347 kts 123°
2026-04-25 04:34 14.22328 121.43425 16775 ft 351 kts 123°
2026-04-25 04:34 14.21012 121.45531 17340 ft 355 kts 123°
2026-04-25 04:35 14.19657 121.47702 17901 ft 359 kts 123°
2026-04-25 04:35 14.18320 121.49844 18487 ft 362 kts 123°
2026-04-25 04:35 14.16950 121.52036 19082 ft 365 kts 123°
2026-04-25 04:35 14.15565 121.54251 19671 ft 367 kts 123°
2026-04-25 04:36 14.14179 121.56468 20227 ft 369 kts 124°
2026-04-25 04:36 14.12783 121.58699 20777 ft 372 kts 124°
2026-04-25 04:36 14.11387 121.60930 21331 ft 375 kts 124°
2026-04-25 04:36 14.09830 121.63080 21869 ft 376 kts 132°
2026-04-25 04:37 14.07996 121.64983 22430 ft 376 kts 141°
2026-04-25 04:37 14.05931 121.66667 22982 ft 378 kts 145°
2026-04-25 04:37 14.03806 121.68285 23483 ft 381 kts 146°
2026-04-25 04:37 14.01667 121.69898 23975 ft 385 kts 146°
2026-04-25 04:38 13.99501 121.71535 24479 ft 388 kts 146°
2026-04-25 04:38 13.97305 121.73198 24970 ft 391 kts 146°
2026-04-25 04:38 13.95106 121.74869 25439 ft 395 kts 145°
2026-04-25 04:38 13.92897 121.76550 25900 ft 399 kts 145°
2026-04-25 04:39 13.90662 121.78252 26357 ft 402 kts 145°
2026-04-25 04:39 13.88413 121.80016 26813 ft 406 kts 142°
2026-04-25 04:39 13.86299 121.81941 27235 ft 411 kts 137°
2026-04-25 04:39 13.84327 121.84079 27654 ft 415 kts 133°
2026-04-25 04:40 13.82442 121.86357 28071 ft 419 kts 131°
2026-04-25 04:40 13.80576 121.88657 28456 ft 422 kts 131°
2026-04-25 04:40 13.78670 121.91009 28836 ft 425 kts 131°
2026-04-25 04:40 13.76768 121.93353 29229 ft 428 kts 131°
2026-04-25 04:41 13.74873 121.95684 29641 ft 429 kts 131°
2026-04-25 04:41 13.72949 121.98045 30040 ft 431 kts 131°
2026-04-25 04:41 13.71014 122.00419 30439 ft 432 kts 132°
2026-04-25 04:41 13.69093 122.02775 30801 ft 433 kts 132°
2026-04-25 04:42 13.67147 122.05155 31159 ft 435 kts 132°
2026-04-25 04:42 13.65205 122.07531 31509 ft 436 kts 132°
2026-04-25 04:42 13.63246 122.09927 31848 ft 438 kts 133°
2026-04-25 04:42 13.61292 122.12316 32182 ft 439 kts 133°
2026-04-25 04:43 13.59325 122.14719 32511 ft 440 kts 133°
2026-04-25 04:43 13.57358 122.17122 32865 ft 441 kts 133°
2026-04-25 04:43 13.55388 122.19528 33240 ft 441 kts 133°
2026-04-25 04:43 13.53398 122.21955 33576 ft 443 kts 133°
2026-04-25 04:44 13.51414 122.24376 33919 ft 443 kts 133°
2026-04-25 04:44 13.49447 122.26776 34354 ft 442 kts 133°
2026-04-25 04:44 13.47456 122.29206 34811 ft 440 kts 133°
2026-04-25 04:44 13.45507 122.31583 35237 ft 438 kts 132°
2026-04-25 04:45 13.43539 122.33982 35639 ft 437 kts 132°
2026-04-25 04:45 13.41611 122.36334 35988 ft 436 kts 132°
2026-04-25 04:45 13.39648 122.38727 36326 ft 435 kts 132°
2026-04-25 04:45 13.37692 122.41110 36646 ft 435 kts 132°
2026-04-25 04:46 13.35763 122.43460 36946 ft 434 kts 132°
2026-04-25 04:46 13.33811 122.45837 37239 ft 434 kts 132°
2026-04-25 04:46 13.31870 122.48200 37522 ft 433 kts 132°
2026-04-25 04:46 13.29922 122.50572 37791 ft 433 kts 132°
2026-04-25 04:47 13.27996 122.52917 38043 ft 433 kts 132°
2026-04-25 04:47 13.26039 122.55297 38260 ft 433 kts 132°
2026-04-25 04:47 13.24100 122.57653 38447 ft 434 kts 132°
2026-04-25 04:47 13.22158 122.60015 38616 ft 435 kts 132°
2026-04-25 04:48 13.20190 122.62408 38799 ft 436 kts 132°
2026-04-25 04:48 13.18256 122.64757 38926 ft 437 kts 132°
2026-04-25 04:48 13.16283 122.67162 38924 ft 438 kts 132°
2026-04-25 04:49 13.12358 122.71957 38927 ft 438 kts 132°
2026-04-25 04:49 13.08446 122.76720 38928 ft 438 kts 133°
2026-04-25 04:50 13.04539 122.81463 38929 ft 438 kts 133°
2026-04-25 04:50 13.00592 122.86250 38926 ft 438 kts 133°
2026-04-25 04:51 12.96679 122.90992 38924 ft 437 kts 133°
2026-04-25 04:51 12.92732 122.95771 38920 ft 438 kts 133°
2026-04-25 04:52 12.88820 123.00503 38925 ft 438 kts 133°
2026-04-25 04:52 12.84866 123.05251 38920 ft 438 kts 133°
2026-04-25 04:53 12.80911 123.10014 38922 ft 438 kts 132°
2026-04-25 04:53 12.76986 123.14754 38924 ft 438 kts 132°
2026-04-25 04:54 12.73055 123.19501 38921 ft 438 kts 132°
2026-04-25 04:54 12.69106 123.24268 38925 ft 438 kts 132°
2026-04-25 04:55 12.65173 123.29014 38927 ft 438 kts 132°
2026-04-25 04:55 12.61215 123.33786 38923 ft 438 kts 132°
2026-04-25 04:56 12.57289 123.38520 38930 ft 438 kts 132°
2026-04-25 04:56 12.53348 123.43268 38924 ft 438 kts 132°
2026-04-25 04:57 12.49408 123.48013 38926 ft 438 kts 132°
2026-04-25 04:57 12.45455 123.52770 38929 ft 438 kts 132°
2026-04-25 04:58 12.41524 123.57501 38930 ft 438 kts 132°
2026-04-25 04:58 12.37568 123.62258 38933 ft 438 kts 132°
2026-04-25 04:59 12.33671 123.67030 38929 ft 438 kts 131°
2026-04-25 04:59 12.29807 123.71846 38930 ft 438 kts 131°
2026-04-25 05:00 12.25956 123.76619 38929 ft 438 kts 131°
2026-04-25 05:00 12.22054 123.81440 38924 ft 438 kts 131°
2026-04-25 05:01 12.18185 123.86213 38929 ft 438 kts 131°
2026-04-25 05:01 12.14287 123.91018 38930 ft 438 kts 131°
2026-04-25 05:02 12.10405 123.95799 38924 ft 437 kts 131°
2026-04-25 05:02 12.06522 124.00581 38925 ft 438 kts 131°
2026-04-25 05:03 12.02638 124.05360 38924 ft 438 kts 131°
2026-04-25 05:03 11.98752 124.10139 38921 ft 438 kts 131°
2026-04-25 05:04 11.94862 124.14920 38921 ft 438 kts 131°
2026-04-25 05:04 11.90973 124.19698 38921 ft 438 kts 131°
2026-04-25 05:05 11.87089 124.24447 38921 ft 437 kts 131°
2026-04-25 05:05 11.83177 124.29230 38921 ft 438 kts 131°
2026-04-25 05:06 11.79300 124.33982 38921 ft 437 kts 131°
2026-04-25 05:06 11.75412 124.38751 38921 ft 437 kts 131°
2026-04-25 05:07 11.71532 124.43509 38924 ft 437 kts 131°
2026-04-25 05:07 11.67618 124.48305 38932 ft 437 kts 131°
2026-04-25 05:08 11.63749 124.53045 38940 ft 437 kts 131°
2026-04-25 05:08 11.59859 124.57808 38943 ft 436 kts 131°
2026-04-25 05:09 11.55970 124.62571 38944 ft 436 kts 131°
2026-04-25 05:09 11.52104 124.67310 38939 ft 436 kts 131°
2026-04-25 05:10 11.48221 124.72081 38933 ft 436 kts 131°
2026-04-25 05:10 11.44344 124.76824 38924 ft 436 kts 131°
2026-04-25 05:11 11.40463 124.81563 38924 ft 436 kts 131°
2026-04-25 05:11 11.36599 124.86279 38925 ft 436 kts 131°
2026-04-25 05:12 11.30776 124.93376 38924 ft 436 kts 131°
2026-04-25 05:12 11.26745 124.97993 38923 ft 434 kts 139°
2026-04-25 05:13 11.21918 125.01608 38922 ft 431 kts 152°
2026-04-25 05:13 11.19207 125.02963 38599 ft 430 kts 159°
2026-04-25 05:13 11.16395 125.03960 38297 ft 426 kts 165°
2026-04-25 05:14 11.13506 125.04643 38002 ft 422 kts 169°
2026-04-25 05:14 11.10634 125.05219 37681 ft 419 kts 169°
2026-04-25 05:14 11.07746 125.05787 37325 ft 418 kts 169°
2026-04-25 05:15 11.02031 125.06924 36476 ft 419 kts 169°
2026-04-25 05:15 10.99167 125.07501 35989 ft 418 kts 168°
2026-04-25 05:15 10.96298 125.08081 35476 ft 417 kts 168°
2026-04-25 05:15 10.93457 125.08658 34979 ft 417 kts 168°
2026-04-25 05:16 10.90605 125.09238 34471 ft 417 kts 168°
2026-04-25 05:16 10.87791 125.09808 33922 ft 418 kts 168°
2026-04-25 05:16 10.84899 125.10394 33374 ft 418 kts 167°
2026-04-25 05:16 10.82058 125.11055 32799 ft 419 kts 164°
2026-04-25 05:17 10.79303 125.11871 32394 ft 414 kts 161°
2026-04-25 05:17 10.76530 125.12766 31996 ft 413 kts 161°
2026-04-25 05:17 10.73797 125.13653 31524 ft 410 kts 161°
2026-04-25 05:17 10.71104 125.14529 31012 ft 408 kts 162°
2026-04-25 05:18 10.68384 125.15411 30495 ft 406 kts 162°
2026-04-25 05:18 10.65701 125.16281 29965 ft 405 kts 162°
2026-04-25 05:18 10.63015 125.17152 29428 ft 404 kts 162°
2026-04-25 05:18 10.60350 125.18014 28905 ft 403 kts 162°
2026-04-25 05:19 10.57659 125.18884 28389 ft 402 kts 162°
2026-04-25 05:19 10.55000 125.19742 27934 ft 399 kts 162°
2026-04-25 05:19 10.52357 125.20595 27502 ft 397 kts 162°
2026-04-25 05:19 10.49755 125.21433 27095 ft 393 kts 161°
2026-04-25 05:20 10.47116 125.22281 26626 ft 391 kts 161°
2026-04-25 05:20 10.44541 125.23113 26157 ft 390 kts 161°
2026-04-25 05:20 10.41968 125.23946 25747 ft 386 kts 161°
2026-04-25 05:20 10.39412 125.24773 25332 ft 383 kts 161°
2026-04-25 05:21 10.36889 125.25588 24921 ft 380 kts 161°
2026-04-25 05:21 10.34363 125.26405 24514 ft 377 kts 161°
2026-04-25 05:21 10.31885 125.27205 24112 ft 374 kts 161°
2026-04-25 05:21 10.29377 125.28015 23710 ft 371 kts 161°
2026-04-25 05:22 10.26957 125.28795 23329 ft 368 kts 160°
2026-04-25 05:22 10.24499 125.29589 22935 ft 365 kts 160°
2026-04-25 05:22 10.22081 125.30369 22549 ft 362 kts 160°
2026-04-25 05:22 10.19695 125.31138 22168 ft 359 kts 160°
2026-04-25 05:23 10.17317 125.31906 21792 ft 357 kts 160°
2026-04-25 05:23 10.14963 125.32666 21399 ft 354 kts 160°
2026-04-25 05:23 10.12612 125.33426 20982 ft 353 kts 160°
2026-04-25 05:23 10.10284 125.34177 20568 ft 352 kts 161°
2026-04-25 05:24 10.07922 125.34940 20145 ft 351 kts 161°
2026-04-25 05:24 10.05618 125.35682 19735 ft 349 kts 161°
2026-04-25 05:24 10.03281 125.36434 19320 ft 348 kts 161°
2026-04-25 05:24 10.01004 125.37169 18916 ft 347 kts 161°
2026-04-25 05:25 9.98681 125.37917 18500 ft 345 kts 161°
2026-04-25 05:25 9.96387 125.38655 18087 ft 344 kts 161°
2026-04-25 05:25 9.94129 125.39383 17686 ft 342 kts 161°
2026-04-25 05:25 9.91869 125.40112 17276 ft 341 kts 161°
2026-04-25 05:26 9.89578 125.40848 16870 ft 339 kts 161°
2026-04-25 05:26 9.87345 125.41561 16476 ft 337 kts 161°
2026-04-25 05:26 9.85096 125.42280 16079 ft 336 kts 161°
2026-04-25 05:26 9.82877 125.42990 15693 ft 334 kts 161°
2026-04-25 05:27 9.80655 125.43706 15298 ft 332 kts 161°
2026-04-25 05:27 9.78476 125.44406 14909 ft 330 kts 160°
2026-04-25 05:27 9.76267 125.45116 14521 ft 328 kts 160°
2026-04-25 05:27 9.74092 125.45817 14133 ft 326 kts 160°
2026-04-25 05:28 9.71948 125.46507 13753 ft 324 kts 160°
2026-04-25 05:28 9.69742 125.47054 13355 ft 325 kts 173°
2026-04-25 05:28 9.67482 125.46934 12969 ft 326 kts 190°
2026-04-25 05:28 9.65308 125.46330 12594 ft 325 kts 194°
2026-04-25 05:29 9.63138 125.45652 12216 ft 323 kts 195°
2026-04-25 05:29 9.61008 125.44983 11844 ft 321 kts 195°
2026-04-25 05:29 9.58881 125.44321 11470 ft 320 kts 195°
2026-04-25 05:29 9.57475 125.43888 11228 ft 319 kts 194°
2026-04-25 05:30 9.56470 125.43588 10946 ft 316 kts 197°
2026-04-25 05:30 9.55748 125.43368 10963 ft 315 kts 194°
2026-04-25 05:30 9.53657 125.42722 10558 ft 315 kts 194°
2026-04-25 05:30 9.51549 125.42078 10161 ft 315 kts 194°
2026-04-25 05:31 9.49448 125.41441 9955 ft 306 kts 194°
2026-04-25 05:31 9.47425 125.40826 9619 ft 304 kts 194°
2026-04-25 05:31 9.45393 125.40211 9272 ft 301 kts 194°
2026-04-25 05:31 9.43392 125.39603 8936 ft 299 kts 194°
2026-04-25 05:32 9.41408 125.39002 8609 ft 296 kts 194°
2026-04-25 05:32 9.39439 125.38406 8297 ft 294 kts 194°
2026-04-25 05:32 9.37483 125.37812 7996 ft 290 kts 193°
2026-04-25 05:32 9.35560 125.37228 7731 ft 286 kts 193°
2026-04-25 05:33 9.33670 125.36656 7433 ft 283 kts 193°
2026-04-25 05:33 9.31786 125.36085 7132 ft 280 kts 193°
2026-04-25 05:33 9.29926 125.35517 6833 ft 279 kts 193°
2026-04-25 05:33 9.28046 125.34946 6537 ft 277 kts 193°
2026-04-25 05:34 9.26218 125.34389 6242 ft 275 kts 193°
2026-04-25 05:34 9.24403 125.33836 5951 ft 272 kts 193°
2026-04-25 05:34 9.22563 125.33278 5652 ft 271 kts 193°
2026-04-25 05:34 9.20775 125.32734 5357 ft 269 kts 193°
2026-04-25 05:35 9.18985 125.32191 5052 ft 268 kts 193°
2026-04-25 05:35 9.17184 125.31644 4748 ft 267 kts 193°
2026-04-25 05:35 9.15404 125.31104 4446 ft 266 kts 194°
2026-04-25 05:35 9.13626 125.30563 4140 ft 265 kts 194°
2026-04-25 05:36 9.11870 125.30029 3836 ft 264 kts 194°
2026-04-25 05:36 9.10103 125.29497 3548 ft 263 kts 194°
2026-04-25 05:36 9.08360 125.28973 3257 ft 262 kts 194°
2026-04-25 05:36 9.06614 125.28502 3122 ft 250 kts 184°
2026-04-25 05:37 9.04983 125.28776 3043 ft 228 kts 144°
2026-04-25 05:37 9.03946 125.29853 2999 ft 208 kts 118°
2026-04-25 05:37 9.03309 125.31096 3055 ft 185 kts 111°
2026-04-25 05:37 9.02815 125.32216 3062 ft 165 kts 110°
2026-04-25 05:38 9.02354 125.33234 2929 ft 154 kts 111°
2026-04-25 05:38 9.01910 125.34171 2704 ft 144 kts 111°
2026-04-25 05:38 9.01468 125.35079 2516 ft 142 kts 111°
2026-04-25 05:38 9.01028 125.35970 2328 ft 141 kts 111°
2026-04-25 05:39 9.00588 125.36858 2143 ft 141 kts 111°
2026-04-25 05:39 9.00148 125.37743 1952 ft 140 kts 111°
2026-04-25 05:39 8.99711 125.38626 1769 ft 140 kts 111°
2026-04-25 05:39 8.99276 125.39503 1581 ft 139 kts 110°
2026-04-25 05:40 8.98848 125.40371 1404 ft 139 kts 110°
2026-04-25 05:40 8.98416 125.41247 1216 ft 139 kts 111°
2026-04-25 05:40 8.97986 125.42120 1030 ft 138 kts 111°
2026-04-25 05:40 8.97551 125.43000 846 ft 138 kts 110°
2026-04-25 05:41 8.97128 125.43862 663 ft 137 kts 111°
2026-04-25 05:41 8.96702 125.44727 477 ft 137 kts 110°
2026-04-25 05:41 8.96275 125.45583 318 ft 137 kts 111°
2026-04-25 05:41 8.95853 125.46446 165 ft 137 kts 111°
2026-04-25 05:42 8.95425 125.47308 45 ft 132 kts 112°
2026-04-25 05:42 8.95078 125.48033 50 ft 76 kts 117°
2026-04-25 05:42 8.94921 125.48354 54 ft 35 kts 114°
2026-04-25 05:42 8.94846 125.48506 55 ft 16 kts 117°
2026-04-25 05:43 8.94802 125.48596 56 ft 11 kts 111°
2026-04-25 05:43 8.94791 125.48643 57 ft 2 kts 169°
2026-04-25 05:43 8.94790 125.48616 56 ft 5 kts 294°
2026-04-25 05:43 8.94810 125.48573 56 ft 7 kts 295°
2026-04-25 05:44 8.94838 125.48518 56 ft 9 kts 297°
2026-04-25 05:44 8.94872 125.48451 55 ft 11 kts 296°
2026-04-25 05:44 8.94910 125.48372 54 ft 11 kts 294°
2026-04-25 05:44 8.94909 125.48298 53 ft 10 kts 251°
2026-04-25 05:45 8.94893 125.48244 53 ft 6 kts 268°
2026-04-25 05:45 8.94897 125.48207 53 ft 5 kts 257°
2026-04-25 05:45 8.94881 125.48179 53 ft 3 kts 237°
2026-04-25 05:45 8.94871 125.48164 52 ft 1 kts 236°
2026-04-25 05:46 8.94868 125.48159 52 ft 0 kts 236°